When you browse on this site, cookies collect data to enhance your experience and personalize the content and advertising you see.
Visit our Privacy Policy to learn more. By continuing to use the site, you agree to this use of cookies and data.
  • In Österreich
  • Länderverzeichnis
  • Für 7 Tage
  • Wassertemperatur
  • Satellitenkarten
  • Wetterkarte
  • News
  • Widgets
  • user-avatar
    Anmelden

    Stündliche Wetter Fez

    Heute, 21 Januar, Montag

    Zeit Temperatur Niederschläge Wind Luftdruck Luftfeuchtigkeit
    00:00 +9°C° 0 mm 2 m/S 731 mmHg 82%
    01:00 +9°C° 0.1 mm 2 m/S 731 mmHg 82%
    02:00 +9°C° 0.1 mm 2 m/S 731 mmHg 81%
    03:00 +9°C° 0.1 mm 2 m/S 731 mmHg 81%
    04:00 +9°C° 0 mm 2 m/S 731 mmHg 80%
    05:00 +8°C° 0 mm 2 m/S 731 mmHg 79%
    06:00 +8°C° 0 mm 2 m/S 731 mmHg 78%
    07:00 +9°C° 0.2 mm 2 m/S 732 mmHg 77%
    08:00 +9°C° 0.2 mm 2 m/S 732 mmHg 76%
    09:00 +10°C° 0.2 mm 2 m/S 732 mmHg 74%
    10:00 +11°C° 0.4 mm 3 m/S 732 mmHg 71%
    11:00 +11°C° 0.4 mm 4 m/S 732 mmHg 68%
    12:00 +12°C° 0.4 mm 4 m/S 732 mmHg 66%
    13:00 +12°C° 0.3 mm 4 m/S 731 mmHg 64%
    14:00 +13°C° 0.3 mm 4 m/S 731 mmHg 63%
    15:00 +13°C° 0.3 mm 4 m/S 731 mmHg 62%
    16:00 +12°C° 0.5 mm 4 m/S 731 mmHg 69%
    17:00 +10°C° 0.5 mm 3 m/S 731 mmHg 76%
    18:00 +9°C° 0.5 mm 3 m/S 731 mmHg 83%
    19:00 +9°C° 0.3 mm 3 m/S 731 mmHg 85%
    20:00 +8°C° 0.3 mm 3 m/S 732 mmHg 86%
    21:00 +8°C° 0.3 mm 2 m/S 732 mmHg 88%
    22:00 +7°C° 0 mm 2 m/S 733 mmHg 87%
    23:00 +7°C° 0 mm 2 m/S 733 mmHg 87%

    Morgen, 22 Januar, Dienstag

    Zeit Temperatur Niederschläge Wind Luftdruck Luftfeuchtigkeit
    00:00 +7°C° 0 mm 2 m/S 733 mmHg 87%
    01:00 +6°C° 0 mm 2 m/S 733 mmHg 86%
    02:00 +6°C° 0 mm 2 m/S 733 mmHg 85%
    03:00 +6°C° 0 mm 2 m/S 733 mmHg 84%
    04:00 +6°C° 0 mm 2 m/S 733 mmHg 82%
    05:00 +6°C° 0 mm 2 m/S 733 mmHg 81%
    06:00 +5°C° 0 mm 2 m/S 733 mmHg 79%
    07:00 +6°C° 0 mm 2 m/S 734 mmHg 75%
    08:00 +7°C° 0 mm 2 m/S 734 mmHg 71%
    09:00 +8°C° 0 mm 2 m/S 734 mmHg 67%
    10:00 +9°C° 0 mm 2 m/S 734 mmHg 65%
    11:00 +10°C° 0 mm 3 m/S 734 mmHg 63%
    12:00 +11°C° 0 mm 3 m/S 734 mmHg 61%
    13:00 +11°C° 0.1 mm 4 m/S 733 mmHg 62%
    14:00 +11°C° 0.1 mm 4 m/S 733 mmHg 64%
    15:00 +12°C° 0.1 mm 5 m/S 732 mmHg 66%
    16:00 +10°C° 0.1 mm 5 m/S 732 mmHg 70%
    17:00 +10°C° 0.1 mm 4 m/S 732 mmHg 75%
    18:00 +10°C° 0.1 mm 4 m/S 733 mmHg 79%
    19:00 +8°C° 0.1 mm 4 m/S 733 mmHg 81%
    20:00 +8°C° 0.1 mm 4 m/S 733 mmHg 83%
    21:00 +8°C° 0.1 mm 4 m/S 733 mmHg 85%
    22:00 +8°C° 0.3 mm 4 m/S 733 mmHg 84%
    23:00 +8°C° 0.3 mm 4 m/S 733 mmHg 82%

    übermorgen, 23 Januar, Mittwoch

    Zeit Temperatur Niederschläge Wind Luftdruck Luftfeuchtigkeit
    00:00 +8°C° 0.3 mm 5 m/S 732 mmHg 80%
    01:00 +8°C° 0.4 mm 5 m/S 732 mmHg 80%
    02:00 +8°C° 0.4 mm 5 m/S 732 mmHg 79%
    03:00 +8°C° 0.4 mm 6 m/S 731 mmHg 79%
    04:00 +8°C° 0.2 mm 6 m/S 731 mmHg 81%
    05:00 +8°C° 0.2 mm 6 m/S 731 mmHg 83%
    06:00 +8°C° 0.2 mm 6 m/S 731 mmHg 84%
    07:00 +8°C° 0.1 mm 6 m/S 731 mmHg 84%
    08:00 +8°C° 0.1 mm 6 m/S 732 mmHg 85%
    09:00 +8°C° 0.1 mm 5 m/S 732 mmHg 85%
    10:00 +9°C° 0.1 mm 6 m/S 732 mmHg 79%
    11:00 +10°C° 0.1 mm 6 m/S 732 mmHg 74%
    12:00 +11°C° 0.1 mm 7 m/S 732 mmHg 69%
    13:00 +11°C° 0.1 mm 7 m/S 732 mmHg 71%
    14:00 +11°C° 0.1 mm 6 m/S 731 mmHg 72%
    15:00 +10°C° 0.1 mm 6 m/S 730 mmHg 73%
    16:00 +10°C° 0.2 mm 6 m/S 731 mmHg 77%
    17:00 +9°C° 0.2 mm 5 m/S 731 mmHg 80%
    18:00 +10°C° 0.2 mm 4 m/S 731 mmHg 84%
    19:00 +10°C° 0.1 mm 4 m/S 731 mmHg 84%
    20:00 +9°C° 0.1 mm 3 m/S 731 mmHg 85%
    21:00 +9°C° 0.1 mm 3 m/S 731 mmHg 86%
    22:00 +9°C° 0 mm 3 m/S 731 mmHg 85%
    23:00 +9°C° 0 mm 3 m/S 731 mmHg 84%

    24 Januar, Donnerstag

    Zeit Temperatur Niederschläge Wind Luftdruck Luftfeuchtigkeit
    00:00 +9°C° 0 mm 3 m/S 731 mmHg 83%
    01:00 +9°C° 0 mm 3 m/S 730 mmHg 81%
    02:00 +9°C° 0 mm 3 m/S 730 mmHg 80%
    03:00 +9°C° 0 mm 3 m/S 730 mmHg 78%
    04:00 +9°C° 0.1 mm 2 m/S 729 mmHg 79%
    05:00 +9°C° 0.1 mm 2 m/S 729 mmHg 80%
    06:00 +9°C° 0.1 mm 2 m/S 728 mmHg 81%
    07:00 +9°C° 0.1 mm 2 m/S 728 mmHg 80%
    08:00 +9°C° 0.1 mm 2 m/S 728 mmHg 79%
    09:00 +10°C° 0.1 mm 2 m/S 729 mmHg 78%
    10:00 +10°C° 0 mm 2 m/S 728 mmHg 76%
    11:00 +12°C° 0 mm 1 m/S 728 mmHg 75%
    12:00 +12°C° 0 mm 1 m/S 728 mmHg 73%
    13:00 +13°C° 0 mm 1 m/S 727 mmHg 73%
    14:00 +13°C° 0 mm 1 m/S 727 mmHg 72%
    15:00 +14°C° 0 mm 1 m/S 726 mmHg 72%
    16:00 +13°C° 0 mm 1 m/S 726 mmHg 78%
    17:00 +12°C° 0 mm 1 m/S 726 mmHg 83%
    18:00 +10°C° 0 mm 0 m/S 726 mmHg 89%
    19:00 +10°C° 0 mm 0 m/S 727 mmHg 89%
    20:00 +9°C° 0 mm 0 m/S 728 mmHg 90%
    21:00 +9°C° 0 mm 0 m/S 728 mmHg 90%
    22:00 +9°C° 0 mm 0 m/S 728 mmHg 90%
    23:00 +9°C° 0 mm 0 m/S 728 mmHg 91%

    25 Januar, Freitag

    Zeit Temperatur Niederschläge Wind Luftdruck Luftfeuchtigkeit
    00:00 +9°C° 0 mm 0 m/S 728 mmHg 91%
    01:00 +9°C° 0 mm 0 m/S 728 mmHg 92%
    02:00 +8°C° 0 mm 0 m/S 727 mmHg 93%
    03:00 +8°C° 0 mm 0 m/S 727 mmHg 94%
    04:00 +8°C° 0 mm 0 m/S 727 mmHg 94%
    05:00 +7°C° 0 mm 0 m/S 727 mmHg 94%
    06:00 +7°C° 0 mm 0 m/S 727 mmHg 94%
    07:00 +9°C° 0 mm 1 m/S 728 mmHg 92%
    08:00 +10°C° 0 mm 1 m/S 728 mmHg 90%
    09:00 +11°C° 0 mm 1 m/S 729 mmHg 87%
    10:00 +12°C° 0 mm 1 m/S 729 mmHg 80%
    11:00 +14°C° 0 mm 2 m/S 729 mmHg 72%
    12:00 +15°C° 0 mm 2 m/S 729 mmHg 65%
    13:00 +16°C° 0 mm 3 m/S 729 mmHg 61%
    14:00 +16°C° 0 mm 3 m/S 729 mmHg 58%
    15:00 +17°C° 0 mm 3 m/S 728 mmHg 54%
    16:00 +15°C° 0 mm 2 m/S 729 mmHg 60%
    17:00 +14°C° 0 mm 2 m/S 729 mmHg 65%
    18:00 +12°C° 0 mm 1 m/S 729 mmHg 70%
    19:00 +12°C° 0 mm 1 m/S 729 mmHg 70%
    20:00 +11°C° 0 mm 1 m/S 730 mmHg 70%
    21:00 +10°C° 0 mm 1 m/S 730 mmHg 70%
    22:00 +10°C° 0 mm 1 m/S 730 mmHg 68%
    23:00 +10°C° 0 mm 1 m/S 730 mmHg 67%

    26 Januar, Samstag

    Zeit Temperatur Niederschläge Wind Luftdruck Luftfeuchtigkeit
    00:00 +9°C° 0 mm 1 m/S 731 mmHg 66%
    01:00 +9°C° 0 mm 1 m/S 730 mmHg 64%
    02:00 +9°C° 0 mm 1 m/S 730 mmHg 63%
    03:00 +8°C° 0 mm 1 m/S 730 mmHg 62%
    04:00 +8°C° 0 mm 1 m/S 730 mmHg 61%
    05:00 +8°C° 0 mm 1 m/S 730 mmHg 59%
    06:00 +8°C° 0 mm 1 m/S 730 mmHg 58%
    07:00 +9°C° 0 mm 1 m/S 730 mmHg 54%
    08:00 +11°C° 0 mm 1 m/S 731 mmHg 50%
    09:00 +12°C° 0 mm 1 m/S 732 mmHg 46%
    10:00 +14°C° 0 mm 1 m/S 732 mmHg 43%
    11:00 +15°C° 0 mm 1 m/S 732 mmHg 40%
    12:00 +18°C° 0 mm 1 m/S 732 mmHg 37%
    13:00 +19°C° 0 mm 1 m/S 732 mmHg 38%
    14:00 +19°C° 0 mm 1 m/S 732 mmHg 40%
    15:00 +19°C° 0 mm 2 m/S 731 mmHg 41%
    16:00 +18°C° 0 mm 1 m/S 731 mmHg 49%
    17:00 +15°C° 0 mm 1 m/S 731 mmHg 57%
    18:00 +12°C° 0 mm 0 m/S 731 mmHg 64%
    19:00 +11°C° 0 mm 0 m/S 731 mmHg 66%
    20:00 +12°C° 0 mm 1 m/S 732 mmHg 68%
    21:00 +11°C° 0 mm 1 m/S 732 mmHg 70%
    22:00 +11°C° 0 mm 1 m/S 732 mmHg 72%
    23:00 +11°C° 0 mm 1 m/S 732 mmHg 73%
    Mehr zeigen